1328227229221,0.819542
1328227289221,0.808859
1328227349221,0.815889
1328227409221,0.810441
1328227469221,0.818764
1328227529221,0.819203
1328227589221,0.810376
1328227649221,0.809100
1328227709221,0.813149
1328227769221,0.810863
1328227829221,0.803123
1328227889221,0.807945
1328227949221,0.813727
1328228009221,0.815327
1328228069221,0.814344
1328228129221,0.815579
1328228189221,0.807220
1328228249221,0.809465
1328228309221,0.802099
1328228369221,0.800260
1328228429221,0.804952
1328228489221,0.803590
1328228549221,0.809508
1328228609221,0.807375
1328228669221,0.805383
1328228729221,0.807019
1328228789221,0.798085
1328228849221,0.806164
1328228909221,0.810754
1328228969221,0.800518
1328229029221,0.807630
1328229089221,0.805025
1328229149221,0.809395
1328229209221,0.812039
1328229269221,0.802272
1328229329221,0.806160
1328229389221,0.808780
1328229449221,0.801530
1328229509221,0.805673
1328229569221,0.804151
1328229629221,0.806189
1328229689221,0.803038
1328229749221,0.803384
1328229809221,0.804663
1328229869221,0.801694
1328229929221,0.794313
1328229989221,0.805386
1328230049221,0.799795
1328230109221,0.798317
1328230169221,0.804350
1328230229221,0.804377
1328230289221,0.796358
1328230349221,0.834397
1328230409221,0.801692
1328230469221,0.796482
1328230529221,0.800730
1328230589221,0.799826
1328230649221,0.805935
1328230709221,0.796675
1328230769221,0.801976
1328230829231,0.799770
1328230889231,0.797918
1328230949231,0.804180
1328231009231,0.801471
1328231069231,0.798916
1328231129231,0.802056
1328231189231,0.797262
1328231249231,0.797670
1328231309231,0.797076
1328231369231,0.793781
1328231429231,0.805494
1328231489231,0.794163
1328231549231,0.796052
1328231609231,0.795923
1328231669231,0.799613
1328231729231,0.798553
1328231789231,0.796080
1328231849231,0.794485
1328231909231,0.796227
1328231969231,0.796399
1328232029231,0.799343
1328232089231,0.796819
1328232149231,0.795653
1328232209231,0.801909
1328232269231,0.795167
1328232329231,0.792145
1328232389231,0.795678
1328232449231,0.797751
1328232509231,0.807179
1328232569231,0.794734
1328232629231,0.796818
1328232689231,0.794103
1328232749231,0.787848
1328232809231,0.793974
1328232869231,0.802482
1328232929231,0.794074
1328232989231,0.800914
1328233049231,0.796053
1328233109231,0.797495
1328233169231,0.787413
1328233229231,0.797838
1328233289231,0.800437
1328233349231,0.795992
1328233409231,0.795435
1328233469231,0.793991
1328233529231,0.800510
1328233589231,0.801174
1328233649231,0.792966
1328233709231,0.795027
1328233769231,0.797384
1328233829231,0.794989
1328233889231,0.795239
1328233949231,0.793147
1328234009231,0.791485
1328234069231,0.795943
1328234129231,0.797156
1328234189231,0.794519
1328234249231,0.793234
1328234309231,0.790781
1328234369231,0.790585
1328234429242,0.793573
1328234489242,0.794896
1328234549242,0.788883
1328234609242,0.790728
1328234669242,0.793419
1328234729242,0.794030
1328234789242,0.796865
1328234849242,0.791074
1328234909242,0.790418
1328234969242,0.790927
1328235029242,0.790540
1328235089242,0.795395
1328235149242,0.793752
1328235209242,0.797551
1328235269242,0.792689
1328235329242,0.792363
1328235389242,0.798532
1328235449242,0.790986
1328235509242,0.797120
1328235569242,0.791996
1328235629242,0.802821
1328235689242,0.799083
1328235749242,0.795691
1328235809242,0.795741
1328235869242,0.796005
1328235929242,0.814543
1328235989242,0.806200
1328236049242,0.796301
1328236109242,0.803924
1328236169242,0.797513
1328236229242,0.797950
1328236289242,0.795514
1328236349242,0.793192
1328236409242,0.800306
1328236469242,0.795949
1328236529242,0.794995
1328236589242,0.794459
1328236649242,0.800222
1328236709242,0.790837
1328236769242,0.793690
1328236829242,0.793187
1328236889242,0.791955
1328236949242,0.785306
1328237009242,0.795229
1328237069242,0.800976
1328237129242,0.795636
1328237189242,0.792264
1328237249242,0.792812
1328237309242,0.797939
1328237369242,0.789530
1328237429242,0.794964
1328237489242,0.794509
1328237549242,0.797870
1328237609242,0.786271
1328237669242,0.799559
1328237729242,0.796107
1328237789242,0.797794
1328237849242,0.806113
1328237909242,0.796628
1328237969242,0.801047
1328238029253,0.800476
1328238089253,0.802636
1328238149253,0.800555
1328238209253,0.795550
1328238269253,0.805899
1328238329253,0.797622
1328238389253,0.794299
1328238449253,0.810192
1328238509253,0.806123
1328238569253,0.797303
1328238629253,0.791370
1328238689253,0.802535
1328238749253,0.792526
1328238809253,0.796055
1328238869253,0.799904
1328238929253,0.800145
1328238989253,0.792809
1328239049253,0.801176
1328239109253,0.794198
1328239169253,0.797343
1328239229253,0.793086
1328239289253,0.796372
1328239349253,0.799846
1328239409253,0.793096
1328239469253,0.792747
1328239529253,0.792826
1328239589253,0.794696
1328239649253,0.797060
1328239709253,0.801667
1328239769253,0.797372
1328239829253,0.803981
1328239889253,0.795258
1328239949253,0.797015
1328240009253,0.793917
1328240069253,0.794204
1328240129253,0.800838
1328240189253,0.791958
1328240249253,0.797790
1328240309253,0.797921
1328240369253,0.802416
1328240429253,0.798488
1328240489253,0.795190
1328240549253,0.799561
1328240609253,0.797786
1328240669253,0.802090
1328240729253,0.793182
1328240789253,0.797254
1328240849253,0.796892
1328240909253,0.791046
1328240969253,0.795187
1328241029253,0.793161
1328241089253,0.790621
1328241149253,0.795210
1328241209253,0.796285
1328241269253,0.794552
1328241329253,0.799800
1328241389253,0.793367
1328241449253,0.797314
1328241509253,0.794410
1328241569253,0.796143
1328241629264,0.793231
1328241689264,0.791045
1328241749264,0.799500
1328241809264,0.793120
1328241869264,0.796921
1328241929264,0.797870
1328241989264,0.793376
1328242049264,0.788853
1328242109264,0.795789
1328242169264,0.791031
1328242229264,0.802948
1328242289264,0.783416
1328242349264,0.798368
1328242409264,0.791865
1328242469264,0.793865
1328242529264,0.792089
1328242589264,0.794736
1328242649264,0.798405
1328242709264,0.792635
1328242769264,0.794457
1328242829264,0.799509
1328242889264,0.795121
1328242949264,0.795087
1328243009264,0.798765
1328243069264,0.792652
1328243129264,0.785638
1328243189264,0.796063
1328243249264,0.795857
1328243309264,0.791524
1328243369264,0.794224
1328243429264,0.790002
1328243489264,0.790321
1328243549264,0.795063
1328243609264,0.789423
1328243669264,0.799994
1328243729264,0.792587
1328243789264,0.794319
1328243849264,0.792945
1328243909264,0.794793
1328243969264,0.787239
1328244029264,0.797995
1328244089264,0.800680
1328244149264,0.799359
1328244209264,0.804437
1328244269264,0.811916
1328244329264,0.803104
1328244389264,0.815831
1328244449264,0.817789
1328244509264,0.821292
1328244569264,0.821405
1328244629264,0.819206
1328244689264,0.824832
1328244749264,0.819768
1328244809264,0.813685
1328244869264,0.808232
1328244929264,0.810240
1328244989264,0.805466
1328245049264,0.799209
1328245109264,0.798761
1328245169264,0.794355
1328245229275,0.794221
1328245289275,0.793084
1328245349275,0.787272
1328245409275,0.785806
1328245469275,0.789903
1328245529275,0.787873
1328245589275,0.791447
1328245649275,0.785796
1328245709275,0.785953
1328245769275,0.783078
1328245829275,0.792638
1328245889275,0.790858
1328245949275,0.786981
1328246009275,0.793527
1328246069275,0.800400
1328246129275,0.791801
1328246189275,0.793135
1328246249275,0.788574
1328246309275,0.780715
1328246369275,0.793626
1328246429275,0.789277
1328246489275,0.785873
1328246549275,0.789749
1328246609275,0.788619
1328246669275,0.794878
1328246729275,0.787788
1328246789275,0.787800
1328246849275,0.787726
1328246909275,0.785694
1328246969275,0.791372
1328247029275,0.789765
1328247089275,0.784021
1328247149275,0.787286
1328247209275,0.784241
1328247269275,0.786733
1328247329275,0.787889
1328247389275,0.784815
1328247449275,0.779034
1328247509275,0.789837
1328247569275,0.783146
1328247629275,0.787618
1328247689275,0.787956
1328247749275,0.790979
1328247809275,0.781969
1328247869275,0.777627
1328247929275,0.786869
1328247989275,0.790739
1328248049275,0.784959
1328248109275,0.789061
1328248169275,0.783726
1328248229275,0.785454
1328248289275,0.778653
1328248349275,0.783836
1328248409275,0.791567
1328248469275,0.780620
1328248529275,0.779387
1328248589275,0.780994
1328248649275,0.783609
1328248709275,0.775891
1328248769275,0.787208
1328248829286,0.790715
1328248889286,0.785093
1328248949286,0.782049
1328249009286,0.782720
1328249069286,0.779449
1328249129286,0.779713
1328249189286,0.783309
1328249249287,0.787760
1328249309286,0.787484
1328249369286,0.785577
1328249429286,0.783674
1328249489286,0.786237
1328249549286,0.779732
1328249609287,0.778995
1328249669287,0.775821
1328249729287,0.779389
1328249789287,0.781454
1328249849287,0.783512
1328249909287,0.780701
1328249969286,0.782976
1328250029286,0.780384
1328250089286,0.783985
1328250149286,0.785425
1328250209286,0.780380
1328250269286,0.777287
1328250329286,0.785318
1328250389286,0.788296
1328250449286,0.785768
1328250509286,0.781560
1328250569286,0.784615
1328250629287,0.784989
1328250689286,0.775881
1328250749286,0.783741
1328250809286,0.780602
1328250869286,0.781097
1328250929287,0.788639
1328250989287,0.779894
1328251049287,0.781176
1328251109287,0.778020
1328251169287,0.776608
1328251229287,0.778875
1328251289287,0.781388
1328251349286,0.774703
1328251409286,0.779138
1328251469286,0.778355
1328251529286,0.783863
1328251589286,0.775135
1328251649286,0.780503
1328251709286,0.779429
1328251769286,0.775132
1328251829286,0.777843
1328251889286,0.775927
1328251949287,0.778958
1328252009286,0.781317
1328252069286,0.783613
1328252129286,0.778678
1328252189286,0.781983
1328252249286,0.779332
1328252309287,0.780328
1328252369287,0.773957
1328252429298,0.778742
1328252489298,0.774919
1328252549298,0.779908
1328252609298,0.781436
1328252669298,0.779782
1328252729298,0.777586
1328252789298,0.773063
1328252849298,0.773356
1328252909298,0.770524
1328252969298,0.778527
1328253029298,0.782520
1328253089298,0.776816
1328253149298,0.771517
1328253209298,0.781246
1328253269298,0.770364
1328253329298,0.779546
1328253389298,0.779334
1328253449298,0.775516
1328253509298,0.773860
1328253569298,0.778075
1328253629298,0.773836
1328253689298,0.773668
1328253749298,0.776589
1328253809298,0.775002
1328253869298,0.774140
1328253929298,0.781945
1328253989298,0.780835
1328254049298,0.777897
1328254109298,0.782913
1328254169298,0.771524
1328254229298,0.780783
1328254289298,0.775611
1328254349298,0.770408
1328254409298,0.772242
1328254469298,0.769533
1328254529298,0.775674
1328254589298,0.771348
1328254649298,0.776167
1328254709298,0.770145
1328254769298,0.777208
1328254829298,0.768145
1328254889298,0.783147
1328254949298,0.771623
1328255009298,0.773097
1328255069298,0.770416
1328255129298,0.777580
1328255189298,0.769010
1328255249298,0.771135
1328255309298,0.770806
1328255369298,0.769939
1328255429298,0.772277
1328255489298,0.777867
1328255549298,0.774361
1328255609298,0.771876
1328255669298,0.778565
1328255729298,0.773256
1328255789298,0.775688
1328255849298,0.776781
1328255909298,0.777127
1328255969298,0.772907
1328256029310,0.776736
1328256089310,0.772169
1328256149310,0.774018
1328256209310,0.773776
1328256269310,0.770470
1328256329310,0.784340
1328256389310,0.776810
1328256449310,0.773498
1328256509310,0.773381
1328256569310,0.773540
1328256629310,0.775076
1328256689310,0.773863
1328256749310,0.781335
1328256809310,0.776541
1328256869310,0.769780
1328256929310,0.768702
1328256989310,0.772728
1328257049310,0.778391
1328257109310,0.776550
1328257169310,0.768388
1328257229310,0.774341
1328257289310,0.777806
1328257349310,0.777877
1328257409310,0.773864
1328257469310,0.778346
1328257529310,0.773140
1328257589310,0.782444
1328257649310,0.782318
1328257709310,0.771416
1328257769310,0.775870
1328257829310,0.777816
1328257889310,0.772996
1328257949310,0.775045
1328258009310,0.773024
1328258069310,0.778665
1328258129310,0.765935
1328258189310,0.782550
1328258249310,0.771458
1328258309310,0.775706
1328258369310,0.776345
1328258429310,0.770626
1328258489310,0.772688
1328258549310,0.777322
1328258609310,0.776575
1328258669310,0.772508
1328258729310,0.768668
1328258789310,0.781916
1328258849310,0.770802
1328258909310,0.771710
1328258969310,0.765415
1328259029310,0.766545
1328259089310,0.774058
1328259149310,0.770947
1328259209310,0.769652
1328259269310,0.776158
1328259329310,0.773775
1328259389310,0.781217
1328259449310,0.775286
1328259509310,0.782844
1328259569310,0.779610
1328259629321,0.777323
1328259689321,0.784058
1328259749321,0.781781
1328259809321,0.787372
1328259869321,0.781948
1328259929321,0.776433
1328259989321,0.772725
1328260049321,0.776058
1328260109321,0.783236
1328260169321,0.774241
1328260229321,0.774210
1328260289321,0.776761
1328260349321,0.771949
1328260409321,0.769757
1328260469321,0.773909
1328260529321,0.776555
1328260589321,0.771690
1328260649321,0.778486
1328260709321,0.771366
1328260769321,0.777699
1328260829321,0.785750
1328260889321,0.774560
1328260949321,0.777496
1328261009321,0.777063
1328261069321,0.777735
1328261129321,0.776607
1328261189321,0.772284
1328261249321,0.782011
1328261309321,0.782239
1328261369321,0.776208
1328261429321,0.778620
1328261489321,0.775457
1328261549321,0.775966
1328261609321,0.773943
1328261669321,0.776573
1328261729321,0.780309
1328261789321,0.774762
1328261849321,0.771526
1328261909321,0.773745
1328261969321,0.770095
1328262029321,0.772725
1328262089321,0.775437
1328262149321,0.780195
1328262209321,0.772183
1328262269321,0.776554
1328262329321,0.773958
1328262389321,0.772724
1328262449321,0.777972
1328262509321,0.772655
1328262569321,0.769828
1328262629321,0.769388
1328262689321,0.773007
1328262749321,0.778795
1328262809321,0.776252
1328262869321,0.765466
1328262929321,0.775319
1328262989321,0.769202
1328263049321,0.774319
1328263109321,0.763914
1328263169321,0.771194
1328263229333,0.772447
1328263289333,0.771540
1328263349333,0.766575
1328263409333,0.774329
1328263469333,0.767517
1328263529333,0.773437
1328263589333,0.777101
1328263649333,0.774632
1328263709333,0.771477
1328263769333,0.770681
1328263829333,0.771421
1328263889333,0.771032
1328263949333,0.778434
1328264009333,0.767433
1328264069333,0.770941
1328264129333,0.768610
1328264189333,0.768395
1328264249333,0.774262
1328264309333,0.772244
1328264369333,0.774161
1328264429333,0.775479
1328264489333,0.774585
1328264549333,0.773296
1328264609333,0.773755
1328264669333,0.766001
1328264729333,0.770755
1328264789333,0.768774
1328264849333,0.775012
1328264909333,0.764875
1328264969333,0.773579
1328265029333,0.775225
1328265089333,0.764350
1328265149333,0.768568
1328265209333,0.773313
1328265269333,0.772567
1328265329333,0.766135
1328265389333,0.767230
1328265449333,0.770685
1328265509333,0.772801
1328265569333,0.770842
1328265629333,0.769330
1328265689333,0.770130
1328265749333,0.773957
1328265809333,0.767250
1328265869333,0.770301
1328265929333,0.772665
1328265989333,0.763131
1328266049333,0.767018
1328266109333,0.765532
1328266169333,0.764516
1328266229333,0.769100
1328266289333,0.770125
1328266349333,0.771238
1328266409333,0.769425
1328266469333,0.764842
1328266529333,0.765117
1328266589333,0.764643
1328266649333,0.765416
1328266709333,0.764443
1328266769333,0.768576
1328266829345,0.771976
1328266889345,0.772363
1328266949345,0.765981
1328267009345,0.773930
1328267069345,0.769557
1328267129345,0.776536
1328267189345,0.773389
1328267249345,0.764209
1328267309345,0.770439
1328267369345,0.764105
1328267429345,0.768705
1328267489345,0.771225
1328267549345,0.767341
1328267609345,0.767180
1328267669345,0.764561
1328267729345,0.767817
1328267789345,0.768811
1328267849345,0.768954
1328267909345,0.765969
1328267969345,0.767237
1328268029345,0.773969
1328268089345,0.764427
1328268149345,0.765437
1328268209345,0.776398
1328268269345,0.771872
1328268329345,0.769099
1328268389345,0.766366
1328268449345,0.764389
1328268509345,0.760398
1328268569345,0.769674
1328268629345,0.770521
1328268689345,0.769834
1328268749345,0.773123
1328268809345,0.771677
1328268869345,0.768891
1328268929345,0.768588
1328268989345,0.773786
1328269049345,0.762673
1328269109345,0.765399
1328269169345,0.763452
1328269229345,0.766619
1328269289345,0.774696
1328269349345,0.761085
1328269409345,0.769582
1328269469345,0.772011
1328269529345,0.770545
1328269589345,0.763852
1328269649345,0.770306
1328269709345,0.774246
1328269769345,0.772548
1328269829345,0.766784
1328269889345,0.771821
1328269949345,0.769511
1328270009345,0.764301
1328270069345,0.764520
1328270129345,0.771172
1328270189345,0.775788
1328270249345,0.774586
1328270309345,0.772482
1328270369345,0.772966
1328270429357,0.769962
1328270489357,0.765321
1328270549357,0.775073
1328270609357,0.772079
1328270669357,0.768167
1328270729357,0.766432
1328270789357,0.768248
1328270849357,0.769255
1328270909357,0.767189
1328270969357,0.765711
1328271029357,0.767486
1328271089357,0.762941
1328271149357,0.762575
1328271209357,0.771863
1328271269357,0.764918
1328271329357,0.767477
1328271389357,0.768311
1328271449357,0.774040
1328271509357,0.769894
1328271569357,0.777409
1328271629357,0.770235
1328271689357,0.771012
1328271749357,0.773270
1328271809357,0.772359
1328271869357,0.765516
1328271929357,0.765658
1328271989357,0.769180
1328272049357,0.772035
1328272109357,0.775057
1328272169357,0.771350
1328272229357,0.772732
1328272289357,0.762976
1328272349357,0.766897
1328272409357,0.769026
1328272469357,0.769794
1328272529357,0.772715
1328272589357,0.765884
1328272649357,0.774809
1328272709357,0.768791
1328272769357,0.766530
1328272829357,0.769376
1328272889357,0.772699
1328272949357,0.772802
1328273009357,0.775888
1328273069357,0.772411
1328273129357,0.777502
1328273189357,0.770276
1328273249357,0.768392
1328273309357,0.765034
1328273369357,0.772112
1328273429357,0.764722
1328273489357,0.770829
1328273549357,0.770883
1328273609357,0.761985
1328273669357,0.768706
1328273729357,0.772548
1328273789357,0.773944
1328273849357,0.771853
1328273909357,0.767397
1328273969357,0.771564
1328274029369,0.773910
1328274089369,0.769873
1328274149369,0.763475
1328274209369,0.774502
1328274269369,0.768471
1328274329369,0.761698
1328274389369,0.763753
1328274449369,0.768683
1328274509369,0.773176
1328274569369,0.764906
1328274629369,0.760562
1328274689369,0.771109
1328274749369,0.768451
1328274809369,0.773631
1328274869369,0.766612
1328274929369,0.767868
1328274989369,0.768170
1328275049369,0.764922
1328275109369,0.772610
1328275169369,0.773578
1328275229369,0.768981
1328275289369,0.765770
1328275349369,0.771397
1328275409369,0.771978
1328275469369,0.775423
1328275529369,0.766566
1328275589369,0.767116
1328275649369,0.774982
1328275709369,0.771093
1328275769369,0.775512
1328275829369,0.766894
1328275889369,0.767314
1328275949369,0.772320
1328276009369,0.768475
1328276069369,0.767876
1328276129369,0.769231
1328276189369,0.769345
1328276249369,0.773107
1328276309369,0.763089
1328276369369,0.768632
1328276429369,0.773031
1328276489369,0.771455
1328276549369,0.763258
1328276609369,0.769524
1328276669369,0.776644
1328276729369,0.771359
1328276789369,0.766230
1328276849369,0.768267
1328276909369,0.770932
1328276969369,0.770413
1328277029369,0.770139
1328277089369,0.769606
1328277149369,0.764573
1328277209369,0.768114
1328277269369,0.767159
1328277329369,0.769003
1328277389369,0.772720
1328277449369,0.768489
1328277509369,0.769746
1328277569369,0.762715
1328277629381,0.772928
1328277689381,0.759777
1328277749381,0.769082
1328277809381,0.764331
1328277869381,0.772412
1328277929381,0.762044
1328277989381,0.762302
1328278049381,0.764068
1328278109381,0.767572
1328278169381,0.762594
1328278229381,0.766144
1328278289381,0.775185
1328278349381,0.772832
1328278409381,0.773008
1328278469381,0.774310
1328278529381,0.772310
1328278589381,0.773504
1328278649381,0.770806
1328278709381,0.775344
1328278769381,0.774143
1328278829381,0.774391
1328278889381,0.769934
1328278949381,0.771632
1328279009381,0.769101
1328279069381,0.772927
1328279129381,0.764215
1328279189381,0.763103
1328279249381,0.769819
1328279309381,0.768360
1328279369381,0.765306
1328279429381,0.778834
1328279489381,0.770029
1328279549381,0.775388
1328279609381,0.769170
1328279669381,0.773405
1328279729381,0.771292
1328279789381,0.764668
1328279849381,0.775260
1328279909381,0.766830
1328279969381,0.764911
1328280029381,0.769260
1328280089381,0.774683
1328280149381,0.759489
1328280209381,0.768244
1328280269381,0.768612
1328280329381,0.760211
1328280389381,0.770234
1328280449381,0.770872
1328280509381,0.770310
1328280569381,0.768928
1328280629381,0.767694
1328280689381,0.766348
1328280749381,0.763510
1328280809381,0.760612
1328280869381,0.767622
1328280929381,0.761655
1328280989381,0.768750
1328281049381,0.767642
1328281109381,0.765240
1328281169381,0.763722
1328281229392,0.767344
1328281289392,0.765336
1328281349392,0.764992
1328281409392,0.766395
1328281469392,0.766925
1328281529392,0.758460
1328281589392,0.770151
1328281649392,0.770151
1328281709392,0.762361
1328281769392,0.767375
1328281829392,0.776567
1328281889392,0.774105
1328281949392,0.763189
1328282009392,0.761766
1328282069392,0.765101
1328282129392,0.766559
1328282189392,0.766286
1328282249392,0.761834
1328282309392,0.768536
1328282369392,0.762282
1328282429392,0.767254
1328282489392,0.767655
1328282549392,0.770145
1328282609392,0.769490
1328282669392,0.765039
1328282729392,0.766158
1328282789392,0.764428
1328282849392,0.761959
1328282909392,0.763651
1328282969392,0.769563
1328283029392,0.759963
1328283089392,0.768830
1328283149392,0.766669
1328283209392,0.767721
1328283269392,0.770492
1328283329392,0.760179
1328283389392,0.770752
1328283449392,0.761218
1328283509392,0.764265
1328283569392,0.762736
1328283629392,0.764412
1328283689392,0.770031
1328283749392,0.762341
1328283809392,0.762001
1328283869392,0.764197
1328283929392,0.764131
1328283989392,0.766998
1328284049392,0.765060
1328284109392,0.766511
1328284169392,0.769791
1328284229392,0.765253
1328284289392,0.764332
1328284349392,0.770440
1328284409392,0.766942
1328284469392,0.762857
1328284529392,0.768381
1328284589392,0.763376
1328284649392,0.762423
1328284709392,0.766987
1328284769392,0.768638
1328284829404,0.766067
1328284889404,0.758834
1328284949404,0.764645
1328285009404,0.763527
1328285069404,0.769033
1328285129404,0.768026
1328285189404,0.770981
1328285249404,0.771144
1328285309404,0.768496
1328285369404,0.773103
1328285429404,0.766204
1328285489404,0.766370
1328285549404,0.768139
1328285609404,0.768291
1328285669404,0.763478
1328285729404,0.772201
1328285789404,0.764866
1328285849404,0.772938
1328285909404,0.767619
1328285969404,0.759812
1328286029404,0.777846
1328286089404,0.774941
1328286149404,0.767529
1328286209404,0.770149
1328286269404,0.760886
1328286329404,0.770262
1328286389404,0.763807
1328286449404,0.766675
1328286509404,0.775607
1328286569404,0.763981
1328286629404,0.766478
1328286689404,0.774650
1328286749404,0.756706
1328286809404,0.768539
1328286869404,0.763089
1328286929404,0.770109
1328286989404,0.762062
1328287049404,0.772393
1328287109404,0.770146
1328287169404,0.764381
1328287229404,0.766422
1328287289404,0.762614
1328287349404,0.768882
1328287409404,0.770008
1328287469404,0.769591
1328287529404,0.763226
1328287589404,0.770468
1328287649404,0.770982
1328287709404,0.769563
1328287769404,0.777169
1328287829404,0.769203
1328287889404,0.763973
1328287949404,0.767800
1328288009404,0.764558
1328288069404,0.767018
1328288129404,0.777983
1328288189404,0.763717
1328288249404,0.762949
1328288309404,0.772688
1328288369404,0.773845
1328288429415,0.770629
1328288489415,0.766974
1328288549415,0.765871
1328288609415,0.771683
1328288669415,0.773536
1328288729415,0.771428
1328288789415,0.775246
1328288849415,0.764826
1328288909415,0.764403
1328288969415,0.765003
1328289029415,0.763739
1328289089415,0.770708
1328289149415,0.769602
1328289209415,0.772851
1328289269415,0.772505
1328289329415,0.768861
1328289389415,0.766165
1328289449415,0.765068
1328289509415,0.769578
1328289569415,0.762554
1328289629415,0.768875
1328289689415,0.767842
1328289749415,0.765767